Weather History for Bella Bella (Campbell Isl, BC

Change the Weather History Date:

Friday, February 14, 2014

  Actual Average Record
Temperature  
Mean Temperature 42 °F -  
Max Temperature 47 °F - - ()
Min Temperature 36 °F - - ()
Degree Days  
Heating Degree Days 24    
Moisture  
Dew Point 37 °F    
Average Humidity 90    
Maximum Humidity 100    
Minimum Humidity 61    
Precipitation  
Precipitation 0.39 in - - ()
Sea Level Pressure  
Sea Level Pressure 29.48 in    
Wind  
Wind Speed 7 mph ()    
Max Wind Speed 14 mph    
Max Gust Speed 20 mph    
Visibility 7.3 miles    
Events Rain    
T = Trace of Precipitation, MM = Missing Value Source: Averaged Metar Reports

Daily Weather History Graph

Daily Weather History Graph

Search for Another Location

Airport:

Trip Planner

Search our weather history database for the weather conditions in past years. The results will help you decide how hot, cold, wet, or windy it might be!

Date:

Astronomy

Feb. 14, 2014 Rise Set
Actual Time 7:49 AM PST 5:44 PM PST
Civil Twilight 7:14 AM PST 6:20 PM PST
Nautical Twilight 6:34 AM PST 6:59 PM PST
Astronomical Twilight 5:55 AM PST 7:38 PM PST
Moon 6:01 PM PST (2/14) 7:15 AM PST (2/14)
Length of Visible Light 11h 05m
Length of Day
9h 55m
Full, 100% of the Moon is Illuminated
Feb 14
Full
Feb 14
Full
Feb 22
Last Quarter
Mar 1
New
Mar 8
First Quarter

Hourly Weather History & Observations

Time (PST) Temp. Windchill Dew Point Humidity Pressure Visibility Wind Dir Wind Speed Gust Speed Precip Events Conditions
1:00 AM 42.8 °F 38.6 °F 33.8 °F 70% 29.39 in 9.0 mi ESE 6.9 mph - N/A   Overcast
2:00 AM 44.6 °F 38.8 °F 32.0 °F 61% 29.35 in 9.0 mi SE 11.5 mph 18.4 mph N/A   Overcast
2:59 AM 44.6 °F 39.2 °F 32.0 °F 61% 29.29 in 9.0 mi SSE 10.4 mph - N/A Rain Light Rain
3:00 AM 44.6 °F 39.2 °F 32.0 °F 61% 29.29 in 9.0 mi SE 10.4 mph - N/A Rain Light Rain
3:09 AM 44.6 °F 39.7 °F 32.0 °F 61% 29.29 in 9.0 mi SE 9.2 mph - N/A   Overcast
3:10 AM 44.6 °F 39.2 °F 32.0 °F 61% 29.29 in 9.0 mi SE 10.4 mph - N/A Rain Light Rain
4:00 AM 41 °F - 37 °F 80% 29.27 in 7 mi ESE 4.6 mph - - Rain Light Rain
4:00 AM 41.0 °F 38.0 °F 37.4 °F 87% 29.27 in 7.0 mi ESE 4.6 mph - N/A Rain Light Rain
4:20 AM 39.2 °F 37.0 °F 37.4 °F 93% 29.28 in 8.0 mi SE 3.5 mph - N/A Rain Light Rain
4:33 AM 39.2 °F 37.0 °F 37.4 °F 93% 29.28 in 6.0 mi SE 3.5 mph - N/A Rain Light Rain
4:36 AM 39.2 °F 35.9 °F 37.4 °F 93% 29.28 in 5.0 mi SE 4.6 mph - N/A Rain Light Rain
4:39 AM 39.2 °F 37.0 °F 39.2 °F 100% 29.28 in 5.0 mi SE 3.5 mph - N/A Rain Light Rain
5:00 AM 39.2 °F 35.9 °F 37.4 °F 93% 29.29 in 4.0 mi SSE 4.6 mph - N/A Rain Light Rain
5:18 AM 39.2 °F 34.2 °F 37.4 °F 93% 29.29 in 5.0 mi SE 6.9 mph - N/A Rain Light Rain
5:28 AM 39.2 °F 35.9 °F 37.4 °F 93% 29.30 in 5.0 mi SSE 4.6 mph - N/A Rain Light Rain
5:31 AM 39.2 °F 35.0 °F 37.4 °F 93% 29.30 in 5.0 mi SSE 5.8 mph - N/A Rain Light Rain
5:32 AM 39.2 °F 34.2 °F 37.4 °F 93% 29.30 in 5.0 mi SE 6.9 mph - N/A Rain Light Rain
5:33 AM 39.2 °F 33.6 °F 37.4 °F 93% 29.30 in 5.0 mi SE 8.1 mph - N/A Rain Light Rain
5:34 AM 37.4 °F 30.8 °F 37.4 °F 100% 29.30 in 5.0 mi SE 9.2 mph - N/A Rain Light Rain
5:56 AM 37.4 °F 32.1 °F 37.4 °F 100% 29.31 in 4.0 mi SE 6.9 mph - N/A Rain Light Rain
6:00 AM 37.4 °F 32.1 °F 37.4 °F 100% 29.31 in 3.0 mi SE 6.9 mph - N/A Rain Light Rain
6:01 AM 37.4 °F 32.1 °F 37.4 °F 100% 29.31 in 3.0 mi SE 6.9 mph - N/A Rain Light Rain
6:07 AM 37.4 °F 32.8 °F 37.4 °F 100% 29.31 in 3.0 mi SE 5.8 mph - N/A Rain Light Rain
6:12 AM 37.4 °F 32.8 °F 37.4 °F 100% 29.31 in 3.0 mi SE 5.8 mph - N/A Rain Light Rain
6:27 AM 37.4 °F 33.8 °F 37.4 °F 100% 29.32 in 3.0 mi ESE 4.6 mph - N/A Rain Light Rain
6:38 AM 37.4 °F 31.4 °F 37.4 °F 100% 29.32 in 6.0 mi ESE 8.1 mph - N/A Rain Light Rain
6:47 AM 37.4 °F 32.8 °F 37.4 °F 100% 29.33 in 8.0 mi SE 5.8 mph - N/A Rain Light Rain
6:57 AM 37.4 °F 32.1 °F 37.4 °F 100% 29.34 in 6.0 mi SE 6.9 mph - N/A Rain Light Rain
7:00 AM 37.4 °F 32.1 °F 37.4 °F 100% 29.34 in 4.0 mi ESE 6.9 mph - N/A Rain Light Rain
7:01 AM 37.4 °F 32.8 °F 37.4 °F 100% 29.34 in 4.0 mi ESE 5.8 mph - N/A Rain Light Rain
7:05 AM 37.4 °F 32.1 °F 37.4 °F 100% 29.34 in 4.0 mi ESE 6.9 mph - N/A Rain Light Rain
7:10 AM 37.4 °F 32.1 °F 37.4 °F 100% 29.34 in 6.0 mi SE 6.9 mph - N/A Rain Light Rain
7:26 AM 37.4 °F 32.1 °F 37.4 °F 100% 29.34 in 7.0 mi ESE 6.9 mph - N/A Rain Light Rain
7:36 AM 37.4 °F 32.1 °F 37.4 °F 100% 29.35 in 9.0 mi ESE 6.9 mph - N/A   Overcast
7:51 AM 37.4 °F 31.4 °F 37.4 °F 100% 29.35 in 9.0 mi ESE 8.1 mph - N/A Rain Light Rain
7:56 AM 37.4 °F 31.4 °F 37.4 °F 100% 29.36 in 9.0 mi ESE 8.1 mph - N/A Rain Light Rain
8:00 AM 37.4 °F 31.4 °F 37.4 °F 100% 29.36 in 9.0 mi SE 8.1 mph - N/A Rain Light Rain
8:08 AM 37.4 °F 30.8 °F 37.4 °F 100% 29.37 in 5.0 mi SSE 9.2 mph - N/A Rain Light Rain
8:15 AM 37.4 °F 32.8 °F 37.4 °F 100% 29.38 in 4.0 mi SE 5.8 mph - N/A Rain Rain
8:25 AM 39.2 °F 33.0 °F 39.2 °F 100% 29.39 in 6.0 mi SSE 9.2 mph - N/A Rain Light Rain
8:28 AM 39.2 °F 31.6 °F 39.2 °F 100% 29.40 in 5.0 mi SSE 12.7 mph - N/A Rain Rain
8:38 AM 39.2 °F 31.2 °F 39.2 °F 100% 29.41 in 6.0 mi South 13.8 mph 19.6 mph N/A Rain Light Rain
9:00 AM 39.2 °F 32.5 °F 39.2 °F 100% 29.43 in 7.0 mi South 10.4 mph 18.4 mph N/A Rain Light Rain
9:22 AM 39.2 °F 34.2 °F 39.2 °F 100% 29.45 in 5.0 mi South 6.9 mph - N/A Rain Rain
9:42 AM 39.2 °F 33.6 °F 39.2 °F 100% 29.46 in 6.0 mi South 8.1 mph - N/A Rain Light Rain
9:44 AM 41.0 °F 36.4 °F 39.2 °F 93% 29.47 in 7.0 mi SW 6.9 mph - N/A Rain Light Rain
9:49 AM 41.0 °F 37.1 °F 39.2 °F 93% 29.47 in 9.0 mi South 5.8 mph - N/A Rain Light Rain
10:00 AM 40 °F - 40 °F 98% 29.49 in 10 mi South 5.8 mph - - Rain Light Rain
10:00 AM 41.0 °F 37.1 °F 39.2 °F 93% 29.49 in 9.0 mi South 5.8 mph - N/A Rain Light Rain
10:16 AM 41.0 °F 37.1 °F 39.2 °F 93% 29.51 in 9.0 mi SSW 5.8 mph - N/A Rain Light Rain
10:24 AM 41.0 °F 38.0 °F 41.0 °F 100% 29.53 in 9.0 mi SW 4.6 mph - N/A   Overcast
10:28 AM 41.0 °F 37.1 °F 41.0 °F 100% 29.54 in 9.0 mi SW 5.8 mph - N/A   Overcast
11:00 AM 42.8 °F 38.6 °F 39.2 °F 87% 29.69 in 9.0 mi SW 6.9 mph - N/A   Mostly Cloudy
12:00 PM 44.6 °F 40.2 °F 37.4 °F 76% 29.73 in 9.0 mi SW 8.1 mph - N/A   Partly Cloudy
1:00 PM 46.4 °F 43.5 °F 35.6 °F 66% 29.77 in 9.0 mi SW 5.8 mph - N/A   Mostly Cloudy
1:45 PM 44.6 °F 39.2 °F 35.6 °F 71% 29.61 in 7.0 mi SSW 10.4 mph 17.3 mph N/A Rain Light Rain
1:58 PM 44.6 °F 40.7 °F 37.4 °F 76% 29.62 in 9.0 mi SSW 6.9 mph - N/A   Mostly Cloudy
2:00 PM 44.6 °F 40.2 °F 35.6 °F 71% 29.63 in 9.0 mi SSW 8.1 mph - N/A   Scattered Clouds
3:00 PM 44.6 °F 40.7 °F 35.6 °F 71% 29.62 in 9.0 mi SSW 6.9 mph - N/A   Scattered Clouds
3:03 PM 44.6 °F 40.7 °F 37.4 °F 76% 29.60 in 9.0 mi South 6.9 mph - N/A Rain Light Rain
3:32 PM 42.8 °F 39.3 °F 37.4 °F 81% 29.60 in 9.0 mi SSW 5.8 mph - N/A   Mostly Cloudy
4:00 PM 42 °F - 37 °F 75% 29.63 in 10 mi South 6.9 mph - -  
4:00 PM 42.8 °F 38.0 °F 37.4 °F 81% 29.63 in 9.0 mi SSE 8.1 mph - N/A   Scattered Clouds
5:00 PM 41.0 °F 36.4 °F 37.4 °F 87% 29.65 in 9.0 mi SSE 6.9 mph - N/A   Mostly Cloudy
6:00 PM 39.2 °F 35.0 °F 37.4 °F 93% 29.68 in 9.0 mi SE 5.8 mph - N/A   Partly Cloudy
7:00 PM 39.2 °F 35.9 °F 37.4 °F 93% 29.74 in 9.0 mi ESE 4.6 mph - N/A   Mostly Cloudy
7:20 PM 39.2 °F 35.0 °F 37.4 °F 93% 29.75 in 9.0 mi SE 5.8 mph - N/A Rain Light Rain
7:38 PM 39.2 °F 35.9 °F 37.4 °F 93% 29.75 in 9.0 mi ESE 4.6 mph - N/A   Overcast
7:54 PM 39.2 °F 34.2 °F 37.4 °F 93% 29.76 in 9.0 mi ESE 6.9 mph - N/A   Mostly Cloudy
8:00 PM 39.2 °F 34.2 °F 37.4 °F 93% 29.76 in 9.0 mi ESE 6.9 mph - N/A   Mostly Cloudy
8:07 PM 39.2 °F 35.0 °F 37.4 °F 93% 29.78 in 9.0 mi ESE 5.8 mph - N/A   Mostly Cloudy
8:10 PM 39.2 °F 33.6 °F 37.4 °F 93% 29.78 in 9.0 mi SE 8.1 mph - N/A   Overcast
8:14 PM 39.2 °F 35.9 °F 37.4 °F 93% 29.78 in 9.0 mi SSE 4.6 mph - N/A Rain Light Rain
8:29 PM 39.2 °F 35.0 °F 37.4 °F 93% 29.78 in 9.0 mi ESE 5.8 mph - N/A   Overcast
8:32 PM 39.2 °F 35.0 °F 37.4 °F 93% 29.78 in 9.0 mi ESE 5.8 mph - N/A   Overcast
9:00 PM 39.2 °F 33.6 °F 37.4 °F 93% 29.81 in 9.0 mi SE 8.1 mph - N/A   Overcast
10:00 PM 40 °F - 37 °F 86% 29.82 in 10 mi ESE 8.1 mph - -   Overcast
10:00 PM 39.2 °F 33.6 °F 37.4 °F 93% 29.82 in 9.0 mi ESE 8.1 mph - N/A   Overcast
11:00 PM 39.2 °F 33.6 °F 35.6 °F 87% 29.81 in 9.0 mi ESE 8.1 mph - N/A   Overcast